Location: Godiavel Galaoual
(15.2485°N, 12.6604°W)
Time: 12:21:06
(UTC+00:00)

LightSail 2 - Pass Details

Date: 08 June 2020
Orbit: 692 x 720 km, 24.0° (Epoch: 14 July)

Event Time Altitude Azimuth Distance (km) Brightness Sun altitude
Rises 21:27:41 0° 258° (WSW) 3,045 9.0 -27.5°
Reaches altitude 10° 21:30:07 10° 261° (W) 2,129 8.1 -28.0°
Enters shadow 21:34:32 59° 308° (NW) 796 5.5 -28.8°
